Location: DARK SKY Beskydy - Park tmavé oblohy, www.darkskybeskydy.cz
(49.4926°N, 18.5016°E)
Time: 14:58:56
(UTC+01:00)

Vanguard 1 - Pass Details

Date: 21 November 2025
Orbit: 650 x 3821 km, 34.2° (Epoch: 07 December)

Event Time Altitude Azimuth Distance (km) Brightness Sun altitude
Rises 20:05:05 0° 275° (W) 7,519 15.4 -39.7°
Reaches altitude 10° 20:10:28 10° 268° (W) 6,726 14.9 -40.6°
Maximum altitude 20:30:02 38° 212° (SSW) 4,868 13.4 -43.5°
Enters shadow 20:37:35 31° 179° (S) 4,969 13.3 -44.7°
